QAC8880 OTHH-YMML

Flight info

Callsign QAC8880
Flight time N/A
Altitude 33000
Route BUNDU B415 SIXIV N318 TOLDA P570 KITAL L894 BIBGO DCT SABEK/N0483F350 DCT 05S080E 11S085E 14S088E 20S095E/N0477F370 25S104E DCT BYLLA DCT 29S117E/N0469F390 DCT SEVSI DCT 32S128E DCT KAMBI N640 AD V255 BENDO Y12 ARBEY
Aircraft B77L/H-SDE1E2E3FGHIJ2J3J4J5M1RWXY/LB1D1

Departure

Time 2026-05-04 01:23
Airport Hamad International Airport (OTHH)

Arrival

Time N/A
Airport Melbourne Airport (YMML)
Time Latitude Longitude Altitude Speed Heading
2026-05-04 01:03 25.27785 51.61156 34 ft 0 kts 248°
2026-05-04 01:13 25.27790 51.61168 34 ft 2 kts 246°
2026-05-04 01:13 25.27798 51.61187 33 ft 3 kts 242°
2026-05-04 01:13 25.27807 51.61204 32 ft 2 kts 235°
2026-05-04 01:14 25.27817 51.61218 31 ft 2 kts 226°
2026-05-04 01:14 25.27827 51.61228 31 ft 2 kts 214°
2026-05-04 01:14 25.27837 51.61235 32 ft 2 kts 200°
2026-05-04 01:14 25.27846 51.61238 32 ft 1 kts 186°
2026-05-04 01:15 25.27856 51.61238 33 ft 1 kts 173°
2026-05-04 01:15 25.27866 51.61237 31 ft 1 kts 165°
2026-05-04 01:15 25.27875 51.61234 31 ft 1 kts 161°
2026-05-04 01:15 25.27882 51.61231 32 ft 1 kts 159°
2026-05-04 01:16 25.27886 51.61229 32 ft 0 kts 158°
2026-05-04 01:16 25.27881 51.61231 31 ft 5 kts 158°
2026-05-04 01:16 25.27849 51.61266 30 ft 7 kts 100°
2026-05-04 01:17 25.27857 51.61316 34 ft 7 kts 70°
2026-05-04 01:17 25.27876 51.61364 33 ft 7 kts 66°
2026-05-04 01:17 25.27880 51.61418 33 ft 10 kts 105°
2026-05-04 01:17 25.27787 51.61488 32 ft 27 kts 157°
2026-05-04 01:18 25.27637 51.61558 33 ft 19 kts 157°
2026-05-04 01:18 25.27518 51.61518 33 ft 19 kts 199°
2026-05-04 01:18 25.27391 51.61556 34 ft 19 kts 158°
2026-05-04 01:18 25.27266 51.61610 34 ft 19 kts 158°
2026-05-04 01:19 25.27142 51.61669 34 ft 19 kts 157°
2026-05-04 01:19 25.27016 51.61721 34 ft 19 kts 160°
2026-05-04 01:19 25.26890 51.61777 34 ft 19 kts 158°
2026-05-04 01:19 25.26768 51.61831 34 ft 19 kts 159°
2026-05-04 01:20 25.26644 51.61886 34 ft 19 kts 156°
2026-05-04 01:20 25.26519 51.61937 34 ft 19 kts 159°
2026-05-04 01:20 25.26396 51.61995 34 ft 19 kts 158°
2026-05-04 01:20 25.26272 51.62050 34 ft 19 kts 158°
2026-05-04 01:21 25.26148 51.62105 34 ft 19 kts 158°
2026-05-04 01:21 25.26024 51.62159 34 ft 19 kts 159°
2026-05-04 01:21 25.25975 51.62196 34 ft 8 kts 121°
2026-05-04 01:21 25.25977 51.62258 34 ft 9 kts 74°
2026-05-04 01:22 25.26002 51.62328 33 ft 11 kts 67°
2026-05-04 01:22 25.26039 51.62414 31 ft 14 kts 48°
2026-05-04 01:22 25.26110 51.62426 31 ft 0 kts 340°
2026-05-04 01:22 25.26146 51.62412 31 ft 33 kts 340°
2026-05-04 01:23 25.26664 51.62183 29 ft 127 kts 338°
2026-05-04 01:23 25.27745 51.61698 147 ft 197 kts 337°
2026-05-04 01:23 25.29080 51.61105 843 ft 218 kts 337°
2026-05-04 01:23 25.30521 51.60477 1870 ft 227 kts 338°
2026-05-04 01:24 25.32005 51.59824 2978 ft 229 kts 337°
2026-05-04 01:24 25.33484 51.59271 3587 ft 224 kts 352°
2026-05-04 01:24 25.35069 51.59508 4020 ft 246 kts 19°
2026-05-04 01:24 25.36539 51.60671 4007 ft 274 kts 47°
2026-05-04 01:25 25.37412 51.62598 4010 ft 289 kts 74°
2026-05-04 01:25 25.37525 51.64824 4014 ft 293 kts 92°
2026-05-04 01:25 25.37287 51.67053 4008 ft 291 kts 95°
2026-05-04 01:25 25.37029 51.69264 3996 ft 289 kts 94°
2026-05-04 01:26 25.36703 51.71457 3997 ft 290 kts 99°
2026-05-04 01:26 25.36249 51.73641 4010 ft 293 kts 101°
2026-05-04 01:26 25.35777 51.75837 4017 ft 294 kts 101°
2026-05-04 01:26 25.35314 51.78049 4016 ft 296 kts 101°
2026-05-04 01:27 25.34863 51.80270 4023 ft 297 kts 100°
2026-05-04 01:27 25.34418 51.82494 4564 ft 297 kts 99°
2026-05-04 01:27 25.33972 51.84734 5345 ft 299 kts 100°
2026-05-04 01:27 25.33525 51.86980 6170 ft 300 kts 100°
2026-05-04 01:28 25.33076 51.89236 6911 ft 302 kts 100°
2026-05-04 01:28 25.32623 51.91513 7641 ft 305 kts 99°
2026-05-04 01:28 25.32165 51.93809 8346 ft 307 kts 99°
2026-05-04 01:28 25.31703 51.96128 9075 ft 310 kts 99°
2026-05-04 01:29 25.31236 51.98464 9781 ft 313 kts 99°
2026-05-04 01:29 25.30765 52.00820 10452 ft 314 kts 99°
2026-05-04 01:29 25.30293 52.03178 11163 ft 315 kts 99°
2026-05-04 01:29 25.29818 52.05551 11815 ft 318 kts 100°
2026-05-04 01:30 25.29338 52.07948 12444 ft 321 kts 101°
2026-05-04 01:30 25.28586 52.10267 12943 ft 326 kts 122°
2026-05-04 01:30 25.27187 52.12258 13387 ft 331 kts 129°
2026-05-04 01:30 25.25716 52.14235 13992 ft 334 kts 128°
2026-05-04 01:31 25.24252 52.16231 14608 ft 336 kts 128°
2026-05-04 01:31 25.22784 52.18254 15190 ft 339 kts 128°
2026-05-04 01:31 25.21307 52.20299 15748 ft 343 kts 128°
2026-05-04 01:31 25.19815 52.22372 16314 ft 346 kts 128°
2026-05-04 01:32 25.18330 52.24439 16863 ft 350 kts 129°
2026-05-04 01:32 25.16810 52.26556 17407 ft 354 kts 129°
2026-05-04 01:32 25.15273 52.28698 17968 ft 358 kts 129°
2026-05-04 01:32 25.13718 52.30864 18433 ft 362 kts 129°
2026-05-04 01:33 25.12156 52.33038 19013 ft 362 kts 129°
2026-05-04 01:33 25.10592 52.35217 19579 ft 363 kts 129°
2026-05-04 01:33 25.09023 52.37406 20087 ft 365 kts 129°
2026-05-04 01:33 25.07445 52.39606 20599 ft 367 kts 129°
2026-05-04 01:34 25.05855 52.41822 21106 ft 369 kts 129°
2026-05-04 01:34 25.04258 52.44047 21623 ft 371 kts 129°
2026-05-04 01:34 25.02648 52.46288 22140 ft 373 kts 129°
2026-05-04 01:34 25.01049 52.48547 22647 ft 375 kts 125°
2026-05-04 01:35 24.99891 52.51117 22999 ft 377 kts 108°
2026-05-04 01:35 24.99126 52.53908 23374 ft 383 kts 107°
2026-05-04 01:35 24.98356 52.56732 23749 ft 387 kts 107°
2026-05-04 01:35 24.97553 52.59577 24133 ft 390 kts 108°
2026-05-04 01:36 24.96719 52.62434 24515 ft 394 kts 108°
2026-05-04 01:36 24.95863 52.65316 24873 ft 398 kts 108°
2026-05-04 01:36 24.94996 52.68239 25218 ft 403 kts 107°
2026-05-04 01:36 24.94222 52.71224 25569 ft 407 kts 105°
2026-05-04 01:37 24.93485 52.74252 25930 ft 411 kts 105°
2026-05-04 01:37 24.92753 52.77318 26292 ft 416 kts 104°
2026-05-04 01:37 24.92014 52.80412 26638 ft 420 kts 105°
2026-05-04 01:37 24.91262 52.83541 27000 ft 424 kts 105°
2026-05-04 01:38 24.90499 52.86698 27370 ft 429 kts 105°
2026-05-04 01:38 24.89725 52.89881 27726 ft 432 kts 105°
2026-05-04 01:38 24.88941 52.93094 28088 ft 437 kts 105°
2026-05-04 01:38 24.88148 52.96338 28441 ft 441 kts 105°
2026-05-04 01:39 24.87346 52.99611 28799 ft 445 kts 105°
2026-05-04 01:39 24.86547 53.02867 29127 ft 449 kts 105°
2026-05-04 01:39 24.85730 53.06197 29517 ft 451 kts 105°
2026-05-04 01:39 24.84910 53.09538 29881 ft 454 kts 105°
2026-05-04 01:40 24.84080 53.12914 30156 ft 459 kts 105°
2026-05-04 01:40 24.83244 53.16313 30435 ft 462 kts 105°
2026-05-04 01:40 24.82400 53.19736 30747 ft 464 kts 106°
2026-05-04 01:40 24.81553 53.23173 31057 ft 467 kts 106°
2026-05-04 01:41 24.80700 53.26627 31347 ft 469 kts 106°
2026-05-04 01:41 24.79841 53.30107 31609 ft 473 kts 106°
2026-05-04 01:41 24.78975 53.33606 31879 ft 475 kts 106°
2026-05-04 01:41 24.78104 53.37124 32149 ft 478 kts 106°
2026-05-04 01:42 24.77226 53.40663 32413 ft 481 kts 106°
2026-05-04 01:42 24.76342 53.44218 32674 ft 483 kts 107°
2026-05-04 01:42 24.75450 53.47804 32755 ft 490 kts 107°
2026-05-04 01:43 24.73649 53.55033 32783 ft 488 kts 107°
2026-05-04 01:43 24.71871 53.62162 32780 ft 480 kts 107°
2026-05-04 01:44 24.70096 53.69258 32802 ft 483 kts 107°
2026-05-04 01:44 24.68303 53.76406 32794 ft 486 kts 107°
2026-05-04 01:45 24.66809 53.82354 32796 ft 486 kts 107°
2026-05-04 01:45 24.64108 53.93084 32791 ft 485 kts 107°
2026-05-04 01:46 24.62408 54.00256 32784 ft 485 kts 104°
2026-05-04 01:46 24.60851 54.07453 32782 ft 484 kts 104°
2026-05-04 01:47 24.59279 54.14634 32777 ft 483 kts 104°
2026-05-04 01:47 24.57681 54.21795 32779 ft 482 kts 105°
2026-05-04 01:48 24.56076 54.28946 32785 ft 483 kts 105°
2026-05-04 01:48 24.54463 54.36134 32787 ft 485 kts 105°
2026-05-04 01:49 24.53029 54.43386 32807 ft 487 kts 101°
2026-05-04 01:49 24.51764 54.50700 32812 ft 488 kts 102°
2026-05-04 01:50 24.49911 54.57834 32798 ft 484 kts 111°
2026-05-04 01:50 24.47612 54.64766 32796 ft 482 kts 111°
2026-05-04 01:51 24.45338 54.71677 32791 ft 480 kts 111°
2026-05-04 01:51 24.43101 54.78571 32803 ft 481 kts 111°
2026-05-04 01:52 24.40852 54.85514 32806 ft 483 kts 111°
2026-05-04 01:52 24.38596 54.92464 32797 ft 484 kts 111°
2026-05-04 01:53 24.36336 54.99410 32802 ft 483 kts 111°
2026-05-04 01:53 24.34016 55.06316 32803 ft 482 kts 115°
2026-05-04 01:54 24.30837 55.12673 32803 ft 477 kts 126°
2026-05-04 01:54 24.27169 55.18728 32823 ft 477 kts 126°
2026-05-04 01:55 24.23531 55.24821 32814 ft 478 kts 125°
2026-05-04 01:55 24.19908 55.30944 32812 ft 479 kts 125°
2026-05-04 01:56 24.16613 55.37298 32817 ft 482 kts 114°
2026-05-04 01:56 24.14054 55.44072 32830 ft 481 kts 114°
2026-05-04 01:57 24.11490 55.50843 32825 ft 481 kts 114°
2026-05-04 01:57 24.08883 55.57587 32828 ft 482 kts 114°
2026-05-04 01:58 24.06257 55.64331 32834 ft 482 kts 116°
2026-05-04 01:58 24.03233 55.70853 32842 ft 481 kts 120°
2026-05-04 01:59 24.00106 55.77321 32835 ft 481 kts 119°
2026-05-04 01:59 23.96990 55.83813 32848 ft 483 kts 119°
2026-05-04 02:00 23.93883 55.90318 32849 ft 483 kts 119°
2026-05-04 02:00 23.90771 55.96825 32847 ft 483 kts 119°
2026-05-04 02:01 23.87653 56.03333 32856 ft 483 kts 119°
2026-05-04 02:01 23.84533 56.09839 32847 ft 483 kts 119°
2026-05-04 02:02 23.81417 56.16329 32847 ft 482 kts 119°
2026-05-04 02:02 23.78328 56.22757 32858 ft 480 kts 119°
2026-05-04 02:03 23.75224 56.29206 32858 ft 479 kts 119°
2026-05-04 02:03 23.72133 56.35621 32856 ft 479 kts 119°
2026-05-04 02:04 23.69011 56.42086 32861 ft 481 kts 119°
2026-05-04 02:04 23.65890 56.48545 32872 ft 481 kts 119°
2026-05-04 02:05 23.62765 56.55003 32861 ft 481 kts 119°
2026-05-04 02:05 23.59642 56.61449 32859 ft 480 kts 119°
2026-05-04 02:06 23.56520 56.67883 32864 ft 479 kts 119°
2026-05-04 02:06 23.53404 56.74299 32849 ft 479 kts 119°
2026-05-04 02:07 23.50289 56.80702 32871 ft 478 kts 119°
2026-05-04 02:07 23.47172 56.87099 32869 ft 478 kts 119°
2026-05-04 02:08 23.44052 56.93497 32865 ft 478 kts 119°
2026-05-04 02:08 23.40955 56.99839 32881 ft 477 kts 119°
2026-05-04 02:09 23.37832 57.06224 32877 ft 478 kts 119°
2026-05-04 02:09 23.34812 57.12689 32888 ft 480 kts 117°
2026-05-04 02:10 23.31897 57.19223 32871 ft 480 kts 116°
2026-05-04 02:10 23.28978 57.25736 32915 ft 477 kts 117°
2026-05-04 02:11 23.26043 57.32222 32898 ft 478 kts 117°
2026-05-04 02:11 23.23091 57.38712 32887 ft 479 kts 117°
2026-05-04 02:12 23.20133 57.45208 32899 ft 480 kts 117°
2026-05-04 02:12 23.17168 57.51712 32896 ft 481 kts 117°
2026-05-04 02:13 23.14197 57.58225 32898 ft 481 kts 117°
2026-05-04 02:13 23.11224 57.64730 32886 ft 481 kts 117°
2026-05-04 02:14 23.08252 57.71227 32865 ft 480 kts 117°
2026-05-04 02:14 23.05283 57.77708 32865 ft 479 kts 117°
2026-05-04 02:15 23.02309 57.84192 32860 ft 480 kts 117°
2026-05-04 02:15 22.99325 57.90685 32860 ft 481 kts 117°
2026-05-04 02:16 22.96337 57.97177 32841 ft 481 kts 117°
2026-05-04 02:16 22.93354 58.03652 32827 ft 479 kts 117°
2026-05-04 02:17 22.90399 58.10056 32844 ft 478 kts 117°
2026-05-04 02:17 22.87418 58.16510 32841 ft 479 kts 117°
2026-05-04 02:18 22.84427 58.22975 32840 ft 480 kts 117°
2026-05-04 02:18 22.81427 58.29454 32834 ft 481 kts 117°
2026-05-04 02:19 22.78421 58.35934 32836 ft 481 kts 117°
2026-05-04 02:19 22.75415 58.42411 32822 ft 480 kts 117°
2026-05-04 02:20 22.72416 58.48859 32829 ft 478 kts 117°
2026-05-04 02:20 22.69398 58.55337 32841 ft 487 kts 118°
2026-05-04 02:21 22.67615 58.58483 32824 ft 493 kts 129°
2026-05-04 02:21 22.65335 58.61263 32855 ft 496 kts 139°
2026-05-04 02:21 22.59715 58.65647 32846 ft 503 kts 152°
2026-05-04 02:22 22.53611 58.69527 32846 ft 515 kts 152°
2026-05-04 02:22 22.47399 58.73546 32846 ft 525 kts 151°
2026-05-04 02:23 22.41193 58.77632 32818 ft 525 kts 151°
2026-05-04 02:23 22.34958 58.81744 32823 ft 525 kts 151°
2026-05-04 02:24 22.28731 58.85836 32819 ft 523 kts 151°
2026-05-04 02:24 22.22514 58.89915 32816 ft 522 kts 151°
2026-05-04 02:25 22.16309 58.93978 32818 ft 521 kts 151°
2026-05-04 02:25 22.10107 58.98031 32822 ft 521 kts 151°
2026-05-04 02:26 22.03911 59.02079 32820 ft 521 kts 151°
2026-05-04 02:26 21.97708 59.06127 32799 ft 521 kts 151°
2026-05-04 02:27 21.91502 59.10173 32809 ft 522 kts 151°
2026-05-04 02:27 21.85277 59.14227 32818 ft 523 kts 151°
2026-05-04 02:28 21.79042 59.18284 32802 ft 523 kts 151°
2026-05-04 02:28 21.72809 59.22335 32795 ft 524 kts 151°
2026-05-04 02:29 21.66575 59.26383 32795 ft 523 kts 151°
2026-05-04 02:29 21.60345 59.30425 32789 ft 523 kts 151°
2026-05-04 02:30 21.54160 59.34438 32780 ft 523 kts 150°
2026-05-04 02:30 21.47940 59.38475 32781 ft 522 kts 150°
2026-05-04 02:31 21.41716 59.42509 32782 ft 522 kts 150°
2026-05-04 02:31 21.35495 59.46537 32781 ft 522 kts 150°
2026-05-04 02:32 21.29271 59.50562 32781 ft 522 kts 150°
2026-05-04 02:32 21.23056 59.54579 32785 ft 522 kts 150°
2026-05-04 02:33 21.16836 59.58598 32776 ft 522 kts 150°
2026-05-04 02:33 21.10608 59.62618 32776 ft 523 kts 150°
2026-05-04 02:34 21.05432 59.65957 32777 ft 523 kts 150°
2026-05-04 02:34 20.99201 59.69972 32776 ft 523 kts 150°
2026-05-04 02:35 20.92961 59.73976 32782 ft 523 kts 150°
2026-05-04 02:35 20.86717 59.77975 32782 ft 523 kts 150°
2026-05-04 02:36 20.79459 59.82621 32778 ft 523 kts 150°
2026-05-04 02:36 20.74232 59.85965 32782 ft 522 kts 150°
2026-05-04 02:37 20.68001 59.89948 32786 ft 522 kts 150°
2026-05-04 02:37 20.61770 59.93926 32783 ft 522 kts 150°
2026-05-04 02:38 20.55539 59.97900 32788 ft 522 kts 150°
2026-05-04 02:38 20.49310 60.01870 32794 ft 522 kts 150°
2026-05-04 02:39 20.43079 60.05837 32795 ft 521 kts 150°
2026-05-04 02:39 20.36892 60.09772 32792 ft 521 kts 150°
2026-05-04 02:40 20.30660 60.13732 32795 ft 521 kts 150°
2026-05-04 02:40 20.24433 60.17686 32800 ft 521 kts 150°
2026-05-04 02:41 20.18205 60.21636 32799 ft 521 kts 150°
2026-05-04 02:41 20.11977 60.25583 32801 ft 521 kts 150°
2026-05-04 02:42 20.05782 60.29588 32801 ft 522 kts 146°
2026-05-04 02:42 20.00153 60.34452 32806 ft 521 kts 138°
2026-05-04 02:43 19.94798 60.39645 32809 ft 521 kts 138°
2026-05-04 02:43 19.89420 60.44818 32808 ft 521 kts 138°
2026-05-04 02:44 19.84021 60.49958 32806 ft 522 kts 139°
2026-05-04 02:44 19.78608 60.55089 32805 ft 522 kts 138°
2026-05-04 02:45 19.73192 60.60218 32813 ft 522 kts 138°
2026-05-04 02:45 19.67776 60.65346 32812 ft 521 kts 138°
2026-05-04 02:46 19.62365 60.70465 32807 ft 521 kts 138°
2026-05-04 02:46 19.56955 60.75580 32823 ft 521 kts 138°
2026-05-04 02:47 19.51543 60.80691 32818 ft 521 kts 138°
2026-05-04 02:47 19.46125 60.85802 32813 ft 522 kts 138°
2026-05-04 02:48 19.40737 60.90881 32818 ft 522 kts 139°
2026-05-04 02:48 19.35309 60.95992 32815 ft 522 kts 139°
2026-05-04 02:49 19.29880 61.01101 32818 ft 522 kts 139°
2026-05-04 02:49 19.24449 61.06205 32819 ft 522 kts 138°
2026-05-04 02:50 19.19016 61.11307 32822 ft 522 kts 138°
2026-05-04 02:50 19.13591 61.16398 32820 ft 521 kts 138°
2026-05-04 02:51 19.08163 61.21486 32823 ft 521 kts 139°
2026-05-04 02:51 19.02739 61.26565 32818 ft 521 kts 138°
2026-05-04 02:52 18.97319 61.31637 32828 ft 520 kts 138°
2026-05-04 02:52 18.91907 61.36696 32820 ft 519 kts 138°
2026-05-04 02:53 18.86501 61.41745 32828 ft 519 kts 139°
2026-05-04 02:53 18.81095 61.46790 32830 ft 519 kts 139°
2026-05-04 02:54 18.75687 61.51832 32818 ft 518 kts 139°
2026-05-04 02:54 18.70282 61.56867 32832 ft 518 kts 139°
2026-05-04 02:55 18.62186 61.64400 32832 ft 517 kts 139°
2026-05-04 02:56 18.56792 61.69413 32833 ft 517 kts 139°
2026-05-04 02:56 18.51400 61.74420 32834 ft 517 kts 139°
2026-05-04 02:57 18.46005 61.79425 32839 ft 516 kts 139°
2026-05-04 02:57 18.40616 61.84421 32831 ft 516 kts 139°
2026-05-04 02:58 18.35231 61.89409 32836 ft 515 kts 139°
2026-05-04 02:58 18.29846 61.94392 32840 ft 516 kts 139°
2026-05-04 02:59 18.24461 61.99371 32842 ft 516 kts 139°
2026-05-04 02:59 18.19108 62.04316 32842 ft 516 kts 138°
2026-05-04 03:00 18.13682 62.09325 32848 ft 515 kts 138°
2026-05-04 03:00 18.08330 62.14260 32846 ft 515 kts 138°
2026-05-04 03:01 18.02947 62.19220 32844 ft 514 kts 138°
2026-05-04 03:01 17.97565 62.24176 32840 ft 515 kts 138°
2026-05-04 03:02 17.92181 62.29129 32848 ft 514 kts 138°
2026-05-04 03:02 17.86802 62.34072 32850 ft 514 kts 138°
2026-05-04 03:03 17.81427 62.39009 32854 ft 514 kts 138°
2026-05-04 03:03 17.76050 62.43942 32857 ft 513 kts 138°
2026-05-04 03:04 17.70673 62.48873 32856 ft 513 kts 138°
2026-05-04 03:04 17.65301 62.53793 32850 ft 512 kts 138°
2026-05-04 03:05 17.59933 62.58707 32849 ft 512 kts 138°
2026-05-04 03:05 17.54566 62.63615 32855 ft 512 kts 138°
2026-05-04 03:06 17.49204 62.68516 32862 ft 511 kts 138°
2026-05-04 03:06 17.43840 62.73414 32855 ft 512 kts 138°
2026-05-04 03:07 17.38470 62.78312 32862 ft 512 kts 137°
2026-05-04 03:07 17.33104 62.83204 32858 ft 511 kts 138°
2026-05-04 03:08 17.27746 62.88085 32851 ft 510 kts 138°
2026-05-04 03:08 17.22394 62.92956 32854 ft 510 kts 137°
2026-05-04 03:09 17.17077 62.97792 32863 ft 510 kts 137°
2026-05-04 03:09 17.11725 63.02654 32867 ft 509 kts 137°
2026-05-04 03:10 17.06385 63.07504 32852 ft 508 kts 137°
2026-05-04 03:10 17.01054 63.12342 32853 ft 508 kts 137°
2026-05-04 03:11 16.95658 63.17095 32856 ft 508 kts 139°
2026-05-04 03:11 16.90203 63.21789 32861 ft 508 kts 139°
2026-05-04 03:12 16.84748 63.26486 32859 ft 508 kts 139°
2026-05-04 03:12 16.79292 63.31203 32853 ft 510 kts 139°
2026-05-04 03:13 16.73835 63.35928 32859 ft 510 kts 139°
2026-05-04 03:13 16.68375 63.40651 32859 ft 510 kts 139°
2026-05-04 03:14 16.62917 63.45368 32857 ft 509 kts 139°
2026-05-04 03:14 16.57459 63.50080 32863 ft 509 kts 139°
2026-05-04 03:15 16.52008 63.54783 32859 ft 508 kts 139°
2026-05-04 03:15 16.46564 63.59477 32860 ft 507 kts 139°
2026-05-04 03:16 16.41125 63.64162 32858 ft 507 kts 139°
2026-05-04 03:16 16.35689 63.68842 32855 ft 507 kts 139°
2026-05-04 03:17 16.30257 63.73515 32864 ft 507 kts 139°
2026-05-04 03:17 16.24818 63.78190 32852 ft 507 kts 139°
2026-05-04 03:18 16.19378 63.82863 32854 ft 507 kts 139°
2026-05-04 03:18 16.13976 63.87500 32850 ft 507 kts 139°
2026-05-04 03:19 16.08532 63.92168 32853 ft 507 kts 139°
2026-05-04 03:19 16.03089 63.96833 32852 ft 507 kts 139°
2026-05-04 03:20 15.97649 64.01491 32850 ft 506 kts 139°
2026-05-04 03:20 15.92219 64.06139 32854 ft 506 kts 139°
2026-05-04 03:21 15.86789 64.10782 32856 ft 505 kts 139°
2026-05-04 03:21 15.81363 64.15419 32855 ft 505 kts 139°
2026-05-04 03:22 15.75936 64.20053 32854 ft 505 kts 139°
2026-05-04 03:22 15.70509 64.24684 32859 ft 505 kts 139°
2026-05-04 03:23 15.65963 64.28561 32860 ft 505 kts 139°
2026-05-04 03:23 15.60571 64.33156 32860 ft 505 kts 139°
2026-05-04 03:24 15.55143 64.37779 32865 ft 505 kts 139°
2026-05-04 03:24 15.49709 64.42403 32867 ft 505 kts 139°
2026-05-04 03:25 15.44273 64.47026 32869 ft 505 kts 139°
2026-05-04 03:25 15.38831 64.51651 32868 ft 505 kts 139°
2026-05-04 03:26 15.33397 64.56265 32874 ft 505 kts 139°
2026-05-04 03:26 15.27964 64.60876 32873 ft 505 kts 139°
2026-05-04 03:27 15.22534 64.65481 32875 ft 504 kts 139°
2026-05-04 03:27 15.17105 64.70082 32876 ft 504 kts 139°
2026-05-04 03:28 15.11683 64.74674 32877 ft 504 kts 139°
2026-05-04 03:28 15.06263 64.79261 32879 ft 503 kts 139°
2026-05-04 03:29 15.00847 64.83841 32879 ft 503 kts 139°
2026-05-04 03:29 14.95430 64.88420 32878 ft 502 kts 139°
2026-05-04 03:30 14.90017 64.92992 32881 ft 502 kts 139°
2026-05-04 03:30 14.84609 64.97556 32889 ft 502 kts 139°
2026-05-04 03:31 14.79202 65.02117 32883 ft 501 kts 139°
2026-05-04 03:31 14.73801 65.06669 32886 ft 501 kts 139°
2026-05-04 03:32 14.68396 65.11223 32885 ft 501 kts 139°
2026-05-04 03:32 14.62993 65.15771 32888 ft 501 kts 139°
2026-05-04 03:33 14.57586 65.20320 32884 ft 501 kts 140°
2026-05-04 03:33 14.52180 65.24864 32888 ft 501 kts 140°
2026-05-04 03:34 14.46809 65.29377 32888 ft 501 kts 140°
2026-05-04 03:34 14.41401 65.33917 32888 ft 501 kts 140°
2026-05-04 03:35 14.35991 65.38456 32887 ft 501 kts 140°
2026-05-04 03:35 14.30580 65.42992 32888 ft 501 kts 140°
2026-05-04 03:36 14.25172 65.47524 32889 ft 501 kts 140°
2026-05-04 03:36 14.19762 65.52055 32888 ft 501 kts 140°
2026-05-04 03:37 14.14350 65.56584 32891 ft 501 kts 140°
2026-05-04 03:37 14.08945 65.61105 32889 ft 501 kts 140°
2026-05-04 03:38 14.03537 65.65626 32890 ft 500 kts 140°
2026-05-04 03:38 13.98132 65.70140 32892 ft 500 kts 140°
2026-05-04 03:39 13.92733 65.74648 32889 ft 500 kts 140°
2026-05-04 03:39 13.87317 65.79165 32890 ft 500 kts 140°
2026-05-04 03:40 13.81908 65.83675 32891 ft 500 kts 140°
2026-05-04 03:40 13.76497 65.88184 32892 ft 500 kts 140°
2026-05-04 03:41 13.71087 65.92689 32892 ft 500 kts 140°
2026-05-04 03:41 13.65671 65.97197 32890 ft 501 kts 140°
2026-05-04 03:42 13.60294 66.01670 32892 ft 501 kts 140°
2026-05-04 03:42 13.54880 66.06169 32894 ft 501 kts 140°
2026-05-04 03:43 13.49462 66.10670 32893 ft 501 kts 140°
2026-05-04 03:43 13.44044 66.15168 32894 ft 501 kts 140°
2026-05-04 03:44 13.38626 66.19664 32894 ft 501 kts 140°
2026-05-04 03:44 13.33207 66.24157 32892 ft 501 kts 140°
2026-05-04 03:45 13.27788 66.28648 32893 ft 500 kts 140°
2026-05-04 03:45 13.22373 66.33133 32893 ft 500 kts 140°
2026-05-04 03:46 13.16957 66.37616 32890 ft 500 kts 140°
2026-05-04 03:46 13.11538 66.42099 32894 ft 500 kts 140°
2026-05-04 03:47 13.06123 66.46576 32893 ft 500 kts 140°
2026-05-04 03:47 13.00705 66.51053 32893 ft 500 kts 140°
2026-05-04 03:48 12.95292 66.55523 32893 ft 500 kts 140°
2026-05-04 03:48 12.89878 66.59992 32892 ft 500 kts 140°
2026-05-04 03:49 12.84464 66.64458 32895 ft 500 kts 140°
2026-05-04 03:49 12.79084 66.68893 32893 ft 500 kts 140°
2026-05-04 03:50 12.73629 66.73388 32896 ft 500 kts 140°
2026-05-04 03:50 12.68246 66.77821 32896 ft 500 kts 140°
2026-05-04 03:51 12.62825 66.82283 32897 ft 500 kts 140°
2026-05-04 03:51 12.57400 66.86745 32893 ft 500 kts 140°